Mount Holly, NJ

9:40 AM EDT on October 21, 2019 (GMT -0400)
South Jersey Regional

Weather History for KVAY - August, 2019

Change the Weather History Date:

Tuesday, August 6, 2019

  Actual Average (KPNE) Record (KPNE)
Temperature  
Mean Temperature 76 °F -  
Max Temperature 84 °F 83 °F 95 °F (2018)
Min Temperature 70 °F 65 °F 57 °F (1997)
Cooling Degree Days 11    
Growing Degree Days 26 (Base 50)    
Moisture  
Dew Point 71 °F    
Average Humidity 87    
Maximum Humidity 100    
Minimum Humidity 65    
Precipitation  
Precipitation 0.01 in - - ()
Sea Level Pressure  
Sea Level Pressure 29.89 in    
Wind  
Wind Speed 1 mph (ESE)    
Max Wind Speed 10 mph    
Max Gust Speed 21 mph    
Visibility 5 miles    
Events Fog , Rain    
Averages and records for this station are not official NWS values.
T = Trace of Precipitation, MM = Missing Value Source: NWS Daily Summary

Daily Weather History Graph

Daily Weather History Graph

Search for Another Location

Airport or City:

Astronomy

Aug. 06, 2019 Rise Set
Actual Time 6:02 AM EDT 8:07 PM EDT
Civil Twilight 5:32 AM EDT 8:37 PM EDT
Nautical Twilight 4:56 AM EDT 9:13 PM EDT
Astronomical Twilight 4:16 AM EDT 9:53 PM EDT
Moon 12:24 PM EDT (8/6) 11:51 PM EDT (8/6)
Length of Visible Light 15h 04m
Length of Day
14h 05m
Waxing Crescent, 38% of the Moon is Illuminated
Aug 6
Waxing Crescent
Aug 7
First Quarter
Aug 15
Full
Aug 23
Last Quarter
Aug 30
New

Hourly Weather History & Observations

Time (EDT) Temp. Heat Index Dew Point Humidity Pressure Visibility Wind Dir Wind Speed Gust Speed Precip Events Conditions
12:02 AM 72.0 °F - 70.0 °F 93% 29.94 in 0.8 mi Calm Calm - N/A   Mist
12:18 AM 71.1 °F - 70.0 °F 96% 29.94 in 1.2 mi Calm Calm - N/A   Partly Cloudy
12:28 AM 71.1 °F - 70.0 °F 96% 29.94 in 0.8 mi Calm Calm - N/A   Mist
12:39 AM 72.0 °F - 70.0 °F 93% 29.93 in 1.0 mi Calm Calm - N/A   Clear
12:51 AM 71.6 °F - 69.8 °F 94% 29.93 in 1.5 mi Calm Calm - N/A   Clear
12:54 AM 71.1 °F - 70.0 °F 96% 29.93 in 1.8 mi Calm Calm - N/A   Clear
1:11 AM 72.0 °F - 70.0 °F 93% 29.93 in 2.0 mi Calm Calm - N/A   Clear
1:13 AM 72.0 °F - 70.0 °F 93% 29.92 in 1.0 mi Calm Calm - N/A   Mist
1:20 AM 71.1 °F - 69.1 °F 93% 29.92 in 0.2 mi Calm Calm - N/A Fog Fog
1:42 AM 71.1 °F - 70.0 °F 96% 29.91 in 0.5 mi Calm Calm - N/A Fog Fog
1:54 AM 71.1 °F - 69.1 °F 93% 29.91 in 0.5 mi Calm Calm - N/A Fog Fog
2:12 AM 70.0 °F - 69.1 °F 97% 29.90 in 1.0 mi Calm Calm - N/A   Overcast
2:39 AM 71.1 °F - 70.0 °F 96% 29.90 in 2.0 mi Calm Calm - N/A   Overcast
2:48 AM 71.6 °F - 69.8 °F 94% 29.89 in 1.0 mi Calm Calm - N/A   Overcast
2:54 AM 71.1 °F - 70.0 °F 96% 29.90 in 1.0 mi Calm Calm - N/A   Mist
3:02 AM 71.1 °F - 70.0 °F 96% 29.90 in 0.2 mi Calm Calm - N/A Fog Fog
3:54 AM 72.0 °F - 71.1 °F 97% 29.90 in 0.2 mi Calm Calm - N/A Fog Fog
4:54 AM 72.0 °F - 72.0 °F 100% 29.90 in 0.2 mi Calm Calm - N/A Fog Fog
5:54 AM 72.0 °F - 72.0 °F 100% 29.90 in 0.2 mi Calm Calm - N/A Fog Fog
6:54 AM 72.0 °F - 72.0 °F 100% 29.91 in 0.2 mi Calm Calm - N/A Fog Fog
7:28 AM 72.0 °F - 72.0 °F 100% 29.90 in 1.2 mi Calm Calm - N/A   Overcast
7:45 AM 72.0 °F - 72.0 °F 100% 29.90 in 3.0 mi Calm Calm - N/A   Overcast
7:54 AM 73.0 °F - 71.1 °F 93% 29.89 in 3.0 mi NNE 3.5 mph - N/A   Overcast
8:10 AM 73.0 °F - 72.0 °F 96% 29.90 in 2.5 mi North 4.6 mph - N/A   Overcast
8:17 AM 73.0 °F - 72.0 °F 96% 29.90 in 3.0 mi NNE 5.8 mph - N/A   Overcast
8:54 AM 75.0 °F - 72.0 °F 90% 29.90 in 4.0 mi Calm Calm - N/A   Mostly Cloudy
9:08 AM 75.0 °F - 73.0 °F 94% 29.89 in 5.0 mi Calm Calm - N/A   Scattered Clouds
9:22 AM 75.9 °F - 73.0 °F 91% 29.89 in 5.0 mi SE 3.5 mph - N/A   Mostly Cloudy
9:38 AM 75.9 °F - 72.0 °F 87% 29.89 in 7.0 mi Variable 3.5 mph - N/A   Scattered Clouds
9:54 AM 75.9 °F - 73.0 °F 91% 29.89 in 7.0 mi Calm Calm - N/A   Scattered Clouds
10:20 AM 77.0 °F - 73.0 °F 88% 29.89 in 9.0 mi ESE 4.6 mph - N/A   Mostly Cloudy
10:54 AM 79.0 °F - 72.0 °F 79% 29.90 in 10.0 mi Calm Calm - N/A   Scattered Clouds
11:05 AM 78.1 °F - 72.0 °F 81% 29.90 in 10.0 mi Calm Calm - N/A   Mostly Cloudy
11:21 AM 79.0 °F - 72.0 °F 79% 29.90 in 10.0 mi Variable 3.5 mph - N/A   Mostly Cloudy
11:35 AM 80.1 °F 83.8 °F 72.0 °F 76% 29.89 in 10.0 mi Calm Calm - N/A   Scattered Clouds
11:54 AM 81.0 °F 85.2 °F 72.0 °F 74% 29.89 in 10.0 mi East 4.6 mph - N/A   Scattered Clouds
12:19 PM 81.0 °F 84.9 °F 71.1 °F 72% 29.89 in 10.0 mi ENE 3.5 mph - N/A   Mostly Cloudy
12:29 PM 81.0 °F 84.9 °F 71.1 °F 72% 29.88 in 10.0 mi ESE 4.6 mph - N/A   Scattered Clouds
12:46 PM 81.0 °F 84.4 °F 70.0 °F 69% 29.88 in 10.0 mi SSE 4.6 mph - N/A   Mostly Cloudy
12:54 PM 80.1 °F 83.2 °F 70.0 °F 71% 29.88 in 10.0 mi Calm Calm - N/A   Mostly Cloudy
1:54 PM 79.0 °F - 71.1 °F 77% 29.86 in 8.0 mi Calm Calm - 0.01 in Rain Light Rain
2:54 PM 81.0 °F 84.1 °F 69.1 °F 67% 29.84 in 10.0 mi Variable 3.5 mph - 0.00 in   Clear
3:54 PM 80.1 °F 83.2 °F 70.0 °F 71% 29.83 in 10.0 mi SE 10.4 mph 16.1 mph N/A   Mostly Cloudy
4:13 PM 79.0 °F - 69.1 °F 72% 29.83 in 10.0 mi SSE 9.2 mph 20.7 mph N/A   Scattered Clouds
4:54 PM 81.0 °F 84.1 °F 69.1 °F 67% 29.83 in 10.0 mi Variable 4.6 mph - N/A   Clear
5:54 PM 82.0 °F 85.5 °F 69.1 °F 65% 29.82 in 10.0 mi South 4.6 mph - N/A   Clear
6:54 PM 80.1 °F 82.9 °F 69.1 °F 69% 29.82 in 10.0 mi Calm Calm - N/A   Clear
7:54 PM 77.0 °F - 70.0 °F 79% 29.82 in 10.0 mi Variable 4.6 mph - N/A   Clear
8:54 PM 75.0 °F - 70.0 °F 84% 29.83 in 10.0 mi SE 3.5 mph - N/A   Clear
9:54 PM 73.9 °F - 70.0 °F 87% 29.85 in 10.0 mi Variable 3.5 mph - N/A   Clear
10:54 PM 73.9 °F - 70.0 °F 87% 29.85 in 8.0 mi Calm Calm - N/A   Clear
11:54 PM 73.0 °F - 70.0 °F 90% 29.84 in 10.0 mi Variable 4.6 mph - N/A   Clear